Previsão horária em Cedar Rapids

Hoje, 31 Julho, Sábado

Tempo Temperatura Precipitação Vento Pressão Humidade
00:00 +18°C° 0 mm 2 m/s 742 mmHg 82%
01:00 +18°C° 0 mm 2 m/s 742 mmHg 80%
02:00 +18°C° 0 mm 2 m/s 742 mmHg 79%
03:00 +19°C° 0 mm 1 m/s 741 mmHg 77%
04:00 +19°C° 0 mm 1 m/s 741 mmHg 77%
05:00 +19°C° 0 mm 1 m/s 741 mmHg 77%
06:00 +19°C° 0 mm 1 m/s 741 mmHg 77%
07:00 +20°C° 0 mm 1 m/s 741 mmHg 75%
08:00 +21°C° 0 mm 1 m/s 741 mmHg 73%
09:00 +22°C° 0 mm 1 m/s 741 mmHg 72%
10:00 +23°C° 0 mm 1 m/s 741 mmHg 68%
11:00 +24°C° 0 mm 1 m/s 741 mmHg 65%
12:00 +24°C° 0 mm 0 m/s 741 mmHg 62%
13:00 +26°C° 0 mm 1 m/s 741 mmHg 61%
14:00 +27°C° 0 mm 1 m/s 740 mmHg 61%
15:00 +28°C° 0 mm 1 m/s 740 mmHg 61%
16:00 +27°C° 0 mm 1 m/s 740 mmHg 65%
17:00 +27°C° 0 mm 1 m/s 740 mmHg 69%
18:00 +27°C° 0 mm 1 m/s 739 mmHg 73%
19:00 +25°C° 0.1 mm 2 m/s 739 mmHg 80%
20:00 +23°C° 0.1 mm 2 m/s 739 mmHg 86%
21:00 +21°C° 0.1 mm 2 m/s 739 mmHg 93%
22:00 +20°C° 0.8 mm 3 m/s 739 mmHg 94%
23:00 +20°C° 0.8 mm 3 m/s 739 mmHg 95%

Amanhã, 1 Agosto, Domingo

Tempo Temperatura Precipitação Vento Pressão Humidade
00:00 +20°C° 0.8 mm 3 m/s 739 mmHg 96%
01:00 +19°C° 0.1 mm 2 m/s 739 mmHg 96%
02:00 +19°C° 0.1 mm 2 m/s 739 mmHg 96%
03:00 +19°C° 0.1 mm 2 m/s 739 mmHg 96%
04:00 +19°C° 0 mm 2 m/s 739 mmHg 96%
05:00 +19°C° 0 mm 3 m/s 739 mmHg 95%
06:00 +18°C° 0 mm 3 m/s 739 mmHg 95%
07:00 +20°C° 0 mm 3 m/s 740 mmHg 88%
08:00 +22°C° 0 mm 4 m/s 740 mmHg 81%
09:00 +23°C° 0 mm 4 m/s 741 mmHg 74%
10:00 +25°C° 0 mm 4 m/s 741 mmHg 67%
11:00 +26°C° 0 mm 4 m/s 741 mmHg 60%
12:00 +28°C° 0 mm 5 m/s 742 mmHg 53%
13:00 +28°C° 0 mm 5 m/s 742 mmHg 51%
14:00 +28°C° 0 mm 4 m/s 742 mmHg 49%
15:00 +28°C° 0 mm 4 m/s 742 mmHg 47%
16:00 +27°C° 0 mm 4 m/s 742 mmHg 53%
17:00 +26°C° 0 mm 3 m/s 742 mmHg 60%
18:00 +25°C° 0 mm 3 m/s 742 mmHg 67%
19:00 +22°C° 0 mm 3 m/s 742 mmHg 69%
20:00 +20°C° 0 mm 3 m/s 742 mmHg 71%
21:00 +18°C° 0 mm 3 m/s 742 mmHg 73%
22:00 +18°C° 0 mm 3 m/s 742 mmHg 73%
23:00 +17°C° 0 mm 3 m/s 742 mmHg 73%

Depois de amanhã, 2 Agosto, Segunda-feira

Tempo Temperatura Precipitação Vento Pressão Humidade
00:00 +16°C° 0 mm 3 m/s 742 mmHg 74%
01:00 +16°C° 0 mm 2 m/s 743 mmHg 79%
02:00 +15°C° 0 mm 2 m/s 743 mmHg 84%
03:00 +14°C° 0 mm 2 m/s 743 mmHg 90%
04:00 +15°C° 0 mm 1 m/s 743 mmHg 90%
05:00 +15°C° 0 mm 1 m/s 743 mmHg 90%
06:00 +15°C° 0 mm 1 m/s 743 mmHg 91%
07:00 +19°C° 0 mm 1 m/s 744 mmHg 84%
08:00 +21°C° 0 mm 1 m/s 744 mmHg 77%
09:00 +21°C° 0 mm 0 m/s 744 mmHg 71%
10:00 +24°C° 0 mm 1 m/s 744 mmHg 64%
11:00 +25°C° 0 mm 2 m/s 743 mmHg 57%
12:00 +26°C° 0 mm 2 m/s 743 mmHg 51%
13:00 +26°C° 0 mm 2 m/s 743 mmHg 51%
14:00 +26°C° 0 mm 2 m/s 742 mmHg 51%
15:00 +26°C° 0 mm 2 m/s 742 mmHg 51%
16:00 +26°C° 0 mm 2 m/s 742 mmHg 56%
17:00 +25°C° 0 mm 2 m/s 742 mmHg 61%
18:00 +24°C° 0 mm 2 m/s 742 mmHg 67%
19:00 +21°C° 0 mm 2 m/s 742 mmHg 71%
20:00 +20°C° 0 mm 2 m/s 742 mmHg 76%
21:00 +18°C° 0 mm 2 m/s 742 mmHg 80%
22:00 +17°C° 0 mm 2 m/s 742 mmHg 82%
23:00 +18°C° 0 mm 1 m/s 742 mmHg 85%

3 Agosto, Terça-feira

Tempo Temperatura Precipitação Vento Pressão Humidade
00:00 +16°C° 0 mm 1 m/s 742 mmHg 87%
01:00 +16°C° 0 mm 1 m/s 742 mmHg 88%
02:00 +16°C° 0 mm 1 m/s 742 mmHg 89%
03:00 +16°C° 0 mm 1 m/s 742 mmHg 90%
04:00 +16°C° 0 mm 1 m/s 742 mmHg 90%
05:00 +16°C° 0 mm 1 m/s 742 mmHg 90%
06:00 +16°C° 0 mm 1 m/s 743 mmHg 90%
07:00 +19°C° 0 mm 1 m/s 743 mmHg 83%
08:00 +21°C° 0 mm 1 m/s 743 mmHg 76%
09:00 +24°C° 0 mm 1 m/s 743 mmHg 69%
10:00 +25°C° 0 mm 1 m/s 743 mmHg 63%
11:00 +26°C° 0 mm 1 m/s 743 mmHg 57%
12:00 +28°C° 0 mm 1 m/s 743 mmHg 52%
13:00 +28°C° 0 mm 1 m/s 742 mmHg 50%
14:00 +28°C° 0 mm 1 m/s 742 mmHg 48%
15:00 +28°C° 0 mm 1 m/s 742 mmHg 46%
16:00 +28°C° 0 mm 1 m/s 742 mmHg 52%
17:00 +27°C° 0 mm 1 m/s 742 mmHg 59%
18:00 +26°C° 0 mm 2 m/s 742 mmHg 65%
19:00 +24°C° 0 mm 2 m/s 742 mmHg 69%
20:00 +21°C° 0 mm 2 m/s 742 mmHg 73%
21:00 +19°C° 0 mm 2 m/s 742 mmHg 77%
22:00 +18°C° 0 mm 2 m/s 742 mmHg 80%
23:00 +18°C° 0 mm 2 m/s 742 mmHg 83%

4 Agosto, Quarta-feira

Tempo Temperatura Precipitação Vento Pressão Humidade
00:00 +18°C° 0 mm 1 m/s 742 mmHg 86%
01:00 +18°C° 0 mm 1 m/s 742 mmHg 87%
02:00 +16°C° 0 mm 1 m/s 743 mmHg 88%
03:00 +16°C° 0 mm 1 m/s 743 mmHg 90%
04:00 +16°C° 0 mm 1 m/s 743 mmHg 89%
05:00 +18°C° 0 mm 1 m/s 743 mmHg 88%
06:00 +18°C° 0 mm 1 m/s 744 mmHg 87%
07:00 +20°C° 0 mm 1 m/s 744 mmHg 80%
08:00 +22°C° 0 mm 1 m/s 744 mmHg 73%
09:00 +25°C° 0 mm 1 m/s 745 mmHg 66%
10:00 +26°C° 0 mm 1 m/s 745 mmHg 61%
11:00 +27°C° 0 mm 2 m/s 744 mmHg 56%
12:00 +28°C° 0 mm 3 m/s 744 mmHg 50%
13:00 +28°C° 0 mm 3 m/s 744 mmHg 50%
14:00 +29°C° 0 mm 3 m/s 744 mmHg 49%
15:00 +29°C° 0 mm 3 m/s 743 mmHg 48%
16:00 +28°C° 0 mm 3 m/s 743 mmHg 54%
17:00 +27°C° 0 mm 3 m/s 743 mmHg 60%
18:00 +26°C° 0 mm 2 m/s 743 mmHg 66%
19:00 +24°C° 0 mm 2 m/s 743 mmHg 72%
20:00 +21°C° 0 mm 2 m/s 743 mmHg 77%
21:00 +19°C° 0 mm 2 m/s 743 mmHg 83%
22:00 +19°C° 0 mm 2 m/s 743 mmHg 86%
23:00 +18°C° 0 mm 2 m/s 743 mmHg 89%

5 Agosto, Quinta-feira

Tempo Temperatura Precipitação Vento Pressão Humidade
00:00 +18°C° 0 mm 2 m/s 743 mmHg 92%
01:00 +17°C° 0 mm 2 m/s 743 mmHg 92%
02:00 +17°C° 0 mm 2 m/s 743 mmHg 92%
03:00 +16°C° 0 mm 1 m/s 743 mmHg 92%
04:00 +18°C° 0 mm 1 m/s 743 mmHg 92%
05:00 +17°C° 0 mm 2 m/s 743 mmHg 91%
06:00 +17°C° 0 mm 2 m/s 743 mmHg 91%
07:00 +19°C° 0 mm 2 m/s 743 mmHg 83%
08:00 +21°C° 0 mm 2 m/s 744 mmHg 75%
09:00 +24°C° 0 mm 2 m/s 744 mmHg 66%
10:00 +25°C° 0 mm 2 m/s 744 mmHg 62%
11:00 +26°C° 0 mm 3 m/s 743 mmHg 57%
12:00 +28°C° 0 mm 3 m/s 743 mmHg 52%
13:00 +28°C° 0 mm 3 m/s 743 mmHg 51%
14:00 +28°C° 0 mm 3 m/s 742 mmHg 50%
15:00 +29°C° 0 mm 3 m/s 742 mmHg 48%
16:00 +28°C° 0 mm 3 m/s 742 mmHg 55%
17:00 +26°C° 0 mm 3 m/s 741 mmHg 62%
18:00 +25°C° 0 mm 3 m/s 741 mmHg 68%
19:00 +24°C° 0 mm 3 m/s 741 mmHg 73%
20:00 +21°C° 0 mm 3 m/s 741 mmHg 77%
21:00 +20°C° 0 mm 2 m/s 741 mmHg 82%
22:00 +19°C° 0 mm 2 m/s 741 mmHg 85%
23:00 +18°C° 0 mm 2 m/s 741 mmHg 88%
Mostrar mais

Necessitamos do seu Consentimento

A Meteoprog e os seus Fornecedores de Serviços podem armazenar e aceder a dados pessoais como cookies, identificadores do dispositivo ou outras tecnologias semelhantes existentes no seu dispositivo e processar estes dados para personalizar conteúdos e anúncios, assim como funcionalidades nas redes sociais e análise de tráfego.

  • Armazenar e/ou aceder a informações no seu dispositivo

    Os cookies, identificadores do dispositivo ou outras informações podem ser armazenados ou acedidos no seu dispositivo, para os fins acima indicados.

  • Anúncios e conteúdos personalizados, medição de anúncios e conteúdos, dados sobre o público-alvo e desenvolvimento de produtos

    Os anúncios e os conteúdos podem ser personalizados com base num perfil. Podem ser adicionados dados adicionais para uma maior personalização dos anúncios e dos conteúdos. A eficácia dos anúncios e dos conteúdos pode ser medida. Podem ser obtidas informações sobre o público que visualizou os anúncios e os conteúdos. Estes dados podem ser usados para desenvolver ou melhorar sistemas, softwares ou a experiência do utilizador.

Ao clicar em "Eu concordo”, permitirá o uso de cookies, identificadores do dispositivo e web beacons mencionados ou outras tecnologias semelhantes. As configurações do navegador do seu dispositivo podem ser alteradas.

Para certos fins, podem ser invocados interesses legítimos ao invés de consentimento. Pode ler mais informação sobre este assunto na nossa Política de Privacidade e Cookies.